Retour au catalogue

STARLINK-34888

ActifCommunicationsVLEO
NORAD 65471·PAYLOAD·🇺🇸 United States

Lancé Sep 3, 2025 depuis Cape Canaveral Space Force Station

Loading…

Prochains Passages (prochaines 24 heures)

TLE

FraisSource: CelesTrak SupGP

Époque: Sep 15, 2026, 02:52 UTC

1 65471C 25195P   26258.11993056 -.00008463  00000+0 -25017-3 0  2580
2 65471  53.1567  95.0125 0001114  86.9710 235.9017 15.34379965    12

Suivez STARLINK-34888 en temps réel avec AllMySat

Download on the App Store